Flag for Cuba Weather past 2 weeks in Santiago de Cuba, Cuba

Now
81 °F

Passing clouds.


Feels Like: 85 °F
Forecast: 70 / 88 °F
Wind: 7 mph from West

Location: Santiago De Cuba - Oriente


UV Index: 7 (High)

Visibility: 6 mi


Pressure: 30.01 "Hg

Humidity: 74%

Dew point: 72 °F

Location of Santiago de CubaLocation

Historic Weather in Santiago de Cuba

°F

Santiago de Cuba temperature yesterday

Maximum temperature yesterday: 84 °F (at 1:52 PM)
Minimum temperature yesterday: 72 °F (at 6:51 AM)
Average temperature yesterday: 79 °F

Past Weeks' High & Low Weather Summary

 TemperatureHumidityPressure
High91 °F (Apr 10, 1:52 PM)94% (Apr 14, 12:51 AM)30.09 "Hg (Apr 14, 12:51 AM)
Low68 °F (Apr 5, 5:52 AM)46% (Apr 10, 1:52 PM)29.86 "Hg (Apr 15, 4:50 PM)
Average79 °F72%29.99 "Hg
* Reported Apr 4 10:52 PM — Apr 19 10:53 PM, Santiago de Cuba, Weather by CustomWeather, © 2014

Note: Actual official high and low records may vary slightly from our data, if they occured in-between our weather recording intervals... More about our weather records

Advertising

Historic Weather Conditions — Data for Previous 24 hours

 ConditionsComfort  
Time TempWeatherWind HumidityBarometerVisibility
10:53 PM
Apr 19
81 °FPassing clouds.5 mph74%30.01 "Hg6 mi
9:51 PM81 °FPassing clouds.7 mph74%30.01 "Hg6 mi
8:51 PM81 °FPassing clouds.7 mph74%30.01 "Hg6 mi
7:50 PM81 °FPassing clouds.9 mph74%29.98 "Hg6 mi
6:53 PM82 °FPassing clouds.9 mph70%29.95 "Hg6 mi
5:50 PM82 °FScattered clouds.9 mph70%29.95 "Hg6 mi
4:51 PM84 °FScattered clouds.10 mph66%29.95 "Hg6 mi
3:51 PM84 °FScattered clouds.9 mph66%29.95 "Hg6 mi
2:50 PM84 °FScattered clouds.9 mph70%29.98 "HgN/A
1:52 PM84 °FPartly sunny.9 mph66%30.01 "Hg6 mi
12:50 PM82 °FPartly sunny.7 mph70%30.01 "Hg6 mi
11:50 AM82 °FScattered clouds.7 mph66%30.04 "HgN/A
10:52 AM82 °FScattered clouds.7 mph66%30.01 "HgN/A
9:50 AM82 °FPassing clouds.6 mph66%30.01 "HgN/A
8:50 AM82 °FPassing clouds.1 mph66%30.01 "HgN/A
7:50 AM75 °FPassing clouds.5 mph78%29.98 "HgN/A
6:51 AM72 °FPassing clouds.5 mph83%29.98 "HgN/A
5:51 AM73 °FPassing clouds.5 mph78%29.98 "Hg6 mi
4:51 AM73 °FPassing clouds.5 mph78%29.95 "Hg6 mi
3:51 AM73 °FPassing clouds.5 mph78%29.95 "Hg6 mi
2:51 AM73 °FPassing clouds.6 mph78%29.98 "Hg6 mi
1:51 AM75 °FPassing clouds.3 mph74%29.98 "Hg6 mi
12:51 AM75 °FPassing clouds.3 mph74%30.01 "Hg6 mi
Weather by CustomWeather, © 2014

See weather overview